Flag for U.S.A. Weather past 2 weeks in Cheyenne, Wyoming, U.S.A.

Now
47 °F

Clear.


Feels Like: 41 °F
Forecast: 41 / 71 °F
Wind: 13 mph from Southwest

Location: Cheyenne Airport

Current Time: Oct 23, 2014 at 8:34:49 AM

Latest Report: Oct 23, 2014 at 7:53 AM


Visibility: 10 mi

Pressure: 30.04 "Hg

Humidity: 54%

Dew point: 31 °F

Location of CheyenneLocation

Historic Weather in Cheyenne — Graph

°F

Cheyenne temperature yesterday

Maximum temperature yesterday: 63 °F (at 12:53 PM)
Minimum temperature yesterday: 42 °F (at 11:53 PM)
Average temperature yesterday: 53 °F

Past Weeks' High & Low Weather Summary

 TemperatureHumidityPressure
High74 °F (Oct 8, 4:53 PM)100% (Oct 10, 7:53 AM)30.26 "Hg (Oct 10, 7:53 AM)
Low32 °F (Oct 18, 6:53 AM)12% (Oct 15, 2:53 PM)29.54 "Hg (Oct 12, 3:53 AM)
Average51 °F52%29.97 "Hg
* Reported Oct 8 6:53 AM — Oct 23 6:53 AM, Cheyenne, Weather by CustomWeather, © 2014

Note: Actual official high and low records may vary slightly from our data, if they occured in-between our weather recording intervals... More about our weather records

Advertising

Cheyenne weather history for previous 24 hours

 ConditionsComfort  
Time TempWeatherWind HumidityBarometerVisibility
6:53 AM
Oct 23
38 °FClear.No wind68%30.08 "Hg10 mi
5:53 AM38 °FClear.10 mph73%30.04 "Hg10 mi
4:53 AM38 °FClear.5 mph70%30.01 "Hg10 mi
3:53 AM37 °FClear.7 mph76%30.03 "Hg10 mi
2:53 AM37 °FClear.7 mph73%30.05 "Hg10 mi
1:53 AM40 °FClear.8 mph65%30.05 "Hg10 mi
12:53 AM40 °FClear.7 mph65%30.03 "Hg10 mi
11:53 PM
Oct 22
42 °FClear.7 mph60%30.03 "Hg10 mi
10:53 PM43 °FClear.10 mph60%30.05 "Hg10 mi
9:53 PM46 °FClear.6 mph51%30.05 "Hg10 mi
8:53 PM51 °FClear.6 mph42%30.04 "Hg10 mi
7:53 PM51 °FClear.7 mph36%30.05 "Hg10 mi
6:53 PM52 °FPassing clouds.7 mph40%30.02 "Hg10 mi
5:53 PM59 °FSunny.5 mph29%29.96 "Hg10 mi
4:53 PM63 °FOvercast.13 mph28%29.93 "Hg10 mi
3:53 PM62 °FPartly sunny.14 mph27%29.93 "Hg10 mi
2:53 PM63 °FPassing clouds.14 mph28%29.91 "Hg10 mi
1:53 PM62 °FPartly sunny.10 mph37%29.92 "Hg10 mi
12:53 PM63 °FPartly sunny.15 mph34%29.92 "Hg10 mi
11:53 AM61 °FSunny.14 mph38%29.94 "Hg10 mi
10:53 AM59 °FSunny.14 mph42%29.96 "Hg10 mi
9:53 AM55 °FSunny.14 mph49%29.96 "Hg10 mi
8:53 AM50 °FSunny.7 mph59%29.96 "Hg10 mi
Weather by CustomWeather, © 2014

See weather overviewHow to use our weather pages